Location: Cheyres
(46.8153°N, 6.7877°E)
Time: 23:33:03
(UTC+00:00)

Transit 2A - All Passes

Search period start: 28 May 2022 00:00
Search period end: 07 June 2022 00:00
Orbit: 598 x 959 km, 66.7° (Epoch: 28 May)

Date Brightness Start Highest point End Pass type
(mag) Time Alt. Az. Time Alt. Az. Time Alt. Az.
28 May - 04:04:40 10° SSE 04:08:52 20° ESE 04:12:51 10° ENE daylight
28 May - 05:45:44 10° SW 05:51:38 76° NW 05:56:59 10° NNE daylight
28 May - 07:31:39 10° W 07:35:36 19° NW 07:39:19 10° N daylight
28 May - 12:47:34 10° NNW 12:51:43 29° NE 12:55:35 10° ESE daylight
28 May - 14:30:39 10° NW 14:34:59 41° WSW 14:39:04 10° S daylight
29 May - 03:31:52 10° SE 03:34:46 14° ESE 03:37:35 10° ENE daylight
29 May - 05:11:22 10° SSW 05:17:18 80° ESE 05:22:41 10° NE daylight
29 May - 06:56:29 10° W 07:01:01 24° NW 07:05:14 10° NNE daylight
29 May - 12:13:27 10° NNW 12:17:10 22° NE 12:20:40 10° E daylight
29 May - 13:56:11 10° NW 14:00:46 63° WSW 14:05:03 10° SSE daylight
30 May - 04:37:13 10° SSW 04:43:01 58° ESE 04:48:18 10° NE daylight
30 May - 06:21:28 10° WSW 06:26:29 30° NW 06:31:06 10° NNE daylight
30 May - 08:10:52 10° NNW 08:11:20 10° NNW 08:11:48 10° NNW daylight
30 May - 11:39:24 10° N 11:42:33 17° NNE 11:45:33 10° ENE daylight
30 May - 13:21:49 10° NNW 13:26:29 87° NE 13:30:50 10° SSE daylight
30 May - 15:07:31 10° W 15:08:45 11° WSW 15:09:58 10° WSW daylight
31 May - 04:03:15 10° S 04:08:46 41° ESE 04:13:50 10° NE daylight
31 May - 05:46:36 10° WSW 05:52:00 40° NW 05:56:56 10° NNE daylight
31 May - 07:34:30 10° NW 07:36:34 12° NNW 07:38:36 10° N daylight
31 May - 11:05:26 10° N 11:07:53 14° NNE 11:10:15 10° ENE daylight
31 May - 12:47:31 10° NNW 12:52:08 59° NE 12:56:27 10° SE daylight
31 May - 14:31:47 10° WNW 14:34:43 17° WSW 14:37:33 10° SSW daylight
01 Jun - 03:29:32 10° S 03:34:34 30° ESE 03:39:14 10° NE daylight
01 Jun - 05:11:54 10° SW 05:17:35 53° NW 05:22:44 10° NNE daylight
01 Jun - 06:58:51 10° WNW 07:01:52 15° NNW 07:04:44 10° N daylight
01 Jun - 10:31:44 10° N 10:33:10 11° NNE 10:34:34 10° NE daylight
01 Jun - 12:13:17 10° NNW 12:17:43 41° NE 12:21:53 10° ESE daylight
01 Jun - 13:56:53 10° NW 14:00:37 26° WSW 14:04:12 10° SSW daylight
02 Jun - 02:56:07 10° SSE 03:00:24 21° ESE 03:04:26 10° ENE visible
02 Jun - 04:37:22 10° SW 04:43:12 72° NW 04:48:29 10° NNE daylight
02 Jun - 06:23:27 10° WNW 06:27:12 18° NW 06:30:44 10° N daylight
02 Jun - 11:39:07 10° NNW 11:43:15 30° NE 11:47:08 10° ESE daylight
02 Jun - 13:22:14 10° NW 13:26:27 38° WSW 13:30:29 10° S daylight
03 Jun - 02:23:12 10° SE 02:26:17 15° ESE 02:29:16 10° ENE visible
03 Jun - 04:02:58 10° SSW 04:08:51 84° ESE 04:14:10 10° NE daylight
03 Jun - 05:48:14 10° W 05:52:36 23° NW 05:56:40 10° NNE daylight
03 Jun - 11:04:58 10° NNW 11:08:42 23° NE 11:12:14 10° E daylight
03 Jun - 12:47:44 10° NW 12:52:15 59° WSW 12:56:30 10° SSE daylight
04 Jun - 03:28:47 10° SSW 03:34:33 61° ESE 03:39:48 10° NE daylight
04 Jun - 05:13:11 10° WSW 05:18:03 29° NW 05:22:33 10° NNE daylight
04 Jun - 10:30:55 10° N 10:34:06 18° NE 10:37:09 10° ENE daylight
04 Jun - 12:13:21 10° NW 12:17:58 88° WSW 12:22:19 10° SSE daylight
04 Jun - 13:59:54 10° W 14:00:12 10° WSW 14:00:30 10° WSW daylight
05 Jun - 02:54:47 10° S 03:00:18 43° ESE 03:05:20 10° NE visible
05 Jun - 04:38:17 10° WSW 04:43:33 37° NW 04:48:23 10° NNE daylight
05 Jun - 06:26:25 10° NW 06:28:09 11° NNW 06:29:52 10° N daylight
05 Jun - 09:56:58 10° N 09:59:27 14° NNE 10:01:50 10° ENE daylight
05 Jun - 11:39:03 10° NNW 11:43:37 63° NE 11:47:56 10° SE daylight
05 Jun - 13:23:27 10° WNW 13:26:10 16° WSW 13:28:48 10° SW daylight
06 Jun - 02:21:02 10° S 02:26:05 31° ESE 02:30:45 10° NE visible
06 Jun - 04:03:33 10° SW 04:09:07 50° NW 04:14:11 10° NNE daylight
06 Jun - 05:50:40 10° WNW 05:53:26 14° NNW 05:56:05 10° N daylight
06 Jun - 09:23:13 10° N 09:24:44 11° NNE 09:26:12 10° NE daylight
06 Jun - 11:04:48 10° NNW 11:09:13 43° NE 11:13:23 10° ESE daylight
06 Jun - 12:48:28 10° WNW 12:52:04 24° WSW 12:55:32 10° SSW daylight
